McCook, NE

7:37 PM CDT on June 28, 2017 (GMT -0500)
McCook Municipal

Weather History for KMCK - February, 2013

Change the Weather History Date:

Sunday, February 10, 2013

  Actual Average Record
Temperature  
Mean Temperature 32 °F 30 °F  
Max Temperature 39 °F 43 °F 79 °F (1999)
Min Temperature 25 °F 16 °F -17 °F (1933)
Degree Days  
Heating Degree Days 32    
Moisture  
Dew Point 25 °F    
Average Humidity 80    
Maximum Humidity 97    
Minimum Humidity 57    
Precipitation  
Precipitation 0.11 in 0.02 in 0.30 in (1978)
Month to date precipitation 0.29 0.19  
Year to date precipitation 0.34 0.70  
Sea Level Pressure  
Sea Level Pressure 29.55 in    
Wind  
Wind Speed 22 mph (WNW)    
Max Wind Speed 37 mph    
Max Gust Speed 51 mph    
Visibility 7 miles    
Events Rain , Snow    
T = Trace of Precipitation, MM = Missing Value Source: NWS Daily Summary

Daily Weather History Graph

Daily Weather History Graph

Search for Another Location

Airport or City:

Trip Planner

Search our weather history database for the weather conditions in past years. The results will help you decide how hot, cold, wet, or windy it might be!

Date:

Astronomy

Feb. 10, 2013 Rise Set
Actual Time 7:41 AM CST 6:12 PM CST
Civil Twilight 7:13 AM CST 6:40 PM CST
Nautical Twilight 6:41 AM CST 7:12 PM CST
Astronomical Twilight 6:09 AM CST 7:44 PM CST
Moon 7:32 AM CST (2/10) 7:05 PM CST (2/10)
Length of Visible Light 11h 27m
Length of Day
10h 31m
New Moon, 0% of the Moon is Illuminated
Feb 10
New Moon
Feb 17
First Quarter
Feb 25
Full
Mar 4
Last Quarter
Mar 11
New

Hourly Weather History & Observations

Time (CST) Temp. Windchill Dew Point Humidity Pressure Visibility Wind Dir Wind Speed Gust Speed Precip Events Conditions
12:53 AM 37.9 °F 32.7 °F 37.0 °F 97% 29.36 in 5.0 mi East 6.9 mph - 0.04 in Rain Light Rain
1:33 AM 35.6 °F 25.5 °F 33.8 °F 93% 29.33 in 5.0 mi West 17.3 mph - 0.06 in Rain Light Rain
1:42 AM 33.8 °F 24.3 °F 30.2 °F 87% 29.32 in 2.5 mi West 13.8 mph - 0.07 in Snow Light Snow
1:53 AM 33.1 °F 22.6 °F 30.9 °F 92% 29.33 in 2.0 mi West 16.1 mph - 0.07 in Snow Light Snow
2:10 AM 33.8 °F 23.5 °F 30.2 °F 87% 29.31 in 2.5 mi West 16.1 mph - 0.01 in Snow Light Snow
2:19 AM 32.0 °F 20.5 °F 30.2 °F 93% 29.31 in 5.0 mi West 18.4 mph 24.2 mph 0.01 in Snow Light Snow
2:40 AM 32.0 °F 19.8 °F 28.4 °F 87% 29.30 in 3.0 mi WNW 20.7 mph 29.9 mph 0.01 in Snow Light Snow
2:48 AM 32.0 °F 19.8 °F 28.4 °F 87% 29.30 in 4.0 mi West 20.7 mph 26.5 mph 0.01 in Snow Light Snow
2:53 AM 30.9 °F 18.1 °F 28.0 °F 89% 29.31 in 5.0 mi West 21.9 mph 31.1 mph 0.01 in Snow Light Snow
3:23 AM 30.2 °F 17.1 °F 26.6 °F 86% 29.30 in 10.0 mi WNW 21.9 mph 29.9 mph 0.00 in   Overcast
3:53 AM 30.0 °F 16.0 °F 25.0 °F 82% 29.30 in 10.0 mi WNW 25.3 mph 34.5 mph 0.00 in   Overcast
4:00 AM 28.4 °F 13.8 °F 24.8 °F 86% 29.28 in 10.0 mi WNW 25.3 mph 32.2 mph N/A   Overcast
4:13 AM 28.4 °F 14.4 °F 24.8 °F 86% 29.28 in 10.0 mi WNW 23.0 mph 33.4 mph N/A   Overcast
4:53 AM 28.0 °F 12.8 °F 24.1 °F 85% 29.30 in 10.0 mi WNW 27.6 mph 36.8 mph N/A   Mostly Cloudy
5:53 AM 27.0 °F 9.8 °F 23.0 °F 85% 29.34 in 10.0 mi WNW 34.5 mph 42.6 mph N/A   Partly Cloudy
6:21 AM 26.6 °F 9.8 °F 23.0 °F 86% 29.33 in 8.0 mi NW 32.2 mph 43.7 mph 0.00 in Snow Light Snow
6:51 AM 26.6 °F 9.6 °F 21.2 °F 80% 29.36 in 10.0 mi NW 33.4 mph 43.7 mph 0.00 in   Overcast
6:53 AM 26.6 °F 9.1 °F 21.2 °F 80% 29.36 in 10.0 mi NW 35.7 mph 46.0 mph N/A   Overcast
7:39 AM 28.4 °F 13.3 °F 21.2 °F 74% 29.42 in 10.0 mi NW 27.6 mph 39.1 mph N/A   Overcast
7:53 AM 28.0 °F 12.3 °F 21.9 °F 78% 29.47 in 10.0 mi NW 29.9 mph 40.3 mph N/A   Overcast
8:50 AM 28.4 °F 12.0 °F 21.2 °F 74% 29.47 in 10.0 mi NW 33.4 mph 44.9 mph N/A   Overcast
8:53 AM 28.9 °F 12.5 °F 21.9 °F 75% 29.52 in 10.0 mi NW 34.5 mph 44.9 mph N/A   Overcast
9:53 AM 30.0 °F 14.9 °F 25.0 °F 82% 29.57 in 7.0 mi NW 29.9 mph 36.8 mph N/A   Overcast
10:02 AM 30.2 °F 14.5 °F 24.8 °F 80% 29.53 in 4.0 mi NW 33.4 mph 39.1 mph 0.00 in   Overcast
10:25 AM 30.2 °F 14.9 °F 26.6 °F 86% 29.54 in 2.5 mi NW 31.1 mph 39.1 mph 0.00 in   Haze
10:39 AM 30.2 °F 14.7 °F 26.6 °F 86% 29.55 in 1.8 mi NW 32.2 mph 39.1 mph 0.00 in Snow Light Snow
10:53 AM 30.9 °F 15.9 °F 27.0 °F 85% 29.60 in 1.0 mi NW 31.1 mph 42.6 mph 0.00 in Snow Light Snow
11:53 AM 32.0 °F 17.2 °F 27.0 °F 82% 29.63 in 1.2 mi NW 32.2 mph 46.0 mph 0.00 in   Overcast
12:12 PM 33.8 °F 18.8 °F 28.4 °F 81% 29.59 in 3.0 mi NW 36.8 mph 47.2 mph 0.00 in   Overcast
12:36 PM 33.8 °F 19.4 °F 28.4 °F 81% 29.60 in 4.0 mi NW 33.4 mph 50.6 mph 0.00 in   Overcast
12:53 PM 35.1 °F 20.6 °F 28.0 °F 76% 29.64 in 9.0 mi NW 36.8 mph 47.2 mph 0.00 in   Overcast
1:53 PM 35.1 °F 21.8 °F 28.0 °F 76% 29.71 in 5.0 mi NW 29.9 mph 42.6 mph 0.00 in Snow Light Snow
2:53 PM 39.0 °F 26.8 °F 27.0 °F 62% 29.74 in 10.0 mi NW 32.2 mph 43.7 mph 0.00 in   Overcast
3:53 PM 37.0 °F 23.7 °F 24.1 °F 59% 29.80 in 10.0 mi NW 34.5 mph 46.0 mph N/A   Overcast
4:53 PM 37.0 °F 24.7 °F 23.0 °F 57% 29.85 in 10.0 mi NW 28.8 mph 33.4 mph N/A   Scattered Clouds
5:53 PM 34.0 °F 21.5 °F 23.0 °F 64% 29.91 in 10.0 mi NW 24.2 mph 32.2 mph N/A   Mostly Cloudy
6:53 PM 30.9 °F 18.7 °F 21.0 °F 67% 29.97 in 10.0 mi NW 19.6 mph 27.6 mph N/A   Clear
7:53 PM 30.0 °F 17.5 °F 19.9 °F 66% 29.99 in 10.0 mi NW 19.6 mph 25.3 mph N/A   Clear
8:53 PM 28.9 °F 21.1 °F 19.9 °F 69% 30.03 in 10.0 mi West 8.1 mph - N/A   Clear
9:53 PM 27.0 °F 18.0 °F 19.9 °F 75% 30.05 in 10.0 mi West 9.2 mph - N/A   Clear
10:53 PM 28.0 °F 18.6 °F 21.0 °F 75% 30.07 in 10.0 mi WNW 10.4 mph 18.4 mph N/A   Clear
11:53 PM 25.0 °F 17.1 °F 19.0 °F 78% 30.12 in 10.0 mi West 6.9 mph - N/A   Partly Cloudy